GW6826 Weather Reports


time (UTC)temp
C
wind
direction
speed
KPH
gust
KPH
rain 1hr
cm
rain 24hr
cm
rain mn
cm
humidity
%
barometer
mb
20260507120036 23 288 11.3 19.3 0.00 1.12 0.00 33 1015.7
20260507114532 23 72 3.2 19.3 0.00 1.12 0.00 32 1015.9
20260507113024 23 159 3.2 22.5 0.00 1.12 0.00 32 1015.9
20260507111531 22 102 4.8 14.5 0.00 1.12 0.00 34 1016.2
20260507110016 22 132 11.3 22.5 0.00 1.12 0.00 36 1016.3
20260507104520 22 103 11.3 20.9 0.00 1.12 0.00 35 1016.5
20260507103023 22 82 11.3 19.3 0.00 1.12 0.00 35 1016.6
20260507101528 21 34 4.8 19.3 0.00 1.12 0.00 35 1016.6
20260507094522 22 86 11.3 22.5 0.00 1.12 0.00 36 1017.1
20260507093025 21 112 0.0 16.1 0.00 1.12 0.00 36 1017.2
20260507091526 21 171 6.4 22.5 0.00 1.12 0.00 33 1017.2
20260507090030 21 114 11.3 17.7 0.00 1.12 0.00 35 1017.2
20260507083023 21 68 8.0 17.7 0.00 1.12 0.00 31 1017.5
20260507081538 21 68 8.0 14.5 0.00 1.12 0.00 29 1017.7
20260507080027 20 56 4.8 17.7 0.00 1.12 0.00 32 1017.8
20260507074524 20 113 12.9 22.5 0.00 1.12 0.00 30 1017.8
20260507073019 20 51 9.7 16.1 0.00 1.12 0.00 36 1017.9
20260507071522 19 40 11.3 17.7 0.00 1.12 0.00 39 1017.9
20260507070024 19 19 6.4 12.9 0.00 1.12 0.00 36 1017.9
20260507064512 19 44 4.8 12.9 0.00 1.12 0.00 43 1017.9
20260507061522 18 83 4.8 14.5 0.00 1.12 0.00 47 1017.9
20260507060026 17 106 8.0 14.5 0.00 1.12 0.00 49 1018.0
20260507054528 17 113 4.8 11.3 0.00 1.12 0.00 51 1018.0
20260507051519 16 38 4.8 11.3 0.00 1.12 0.00 51 1018.0
20260507044509 16 74 6.4 9.7 0.00 1.12 0.00 55 1018.0
20260507043011 15 85 4.8 9.7 0.00 1.12 0.00 57 1017.9
20260507041517 15 103 3.2 11.3 0.00 1.12 0.00 57 1017.8
20260507040006 15 103 4.8 9.7 0.00 1.12 0.00 55 1017.7
20260507033019 14 237 0.0 1.6 0.00 1.12 0.00 60 1017.5
20260507031527 13 237 0.0 1.6 0.00 1.12 0.00 64 1017.2
20260507024504 12 155 0.0 4.8 0.00 1.12 0.00 68 1016.9
20260507023031 12 247 3.2 4.8 0.00 1.12 0.00 68 1016.6
20260507014536 12 307 0.0 0.0 0.00 1.12 0.00 69 1016.4
20260507013008 12 307 0.0 0.0 0.00 1.12 0.00 68 1016.3
20260507011511 12 307 0.0 1.6 0.00 1.12 0.00 67 1016.4
20260507010010 12 307 0.0 4.8 0.00 1.12 0.00 67 1016.4
20260507004512 12 308 3.2 6.4 0.00 1.12 0.00 67 1016.3
20260507003008 12 306 3.2 6.4 0.00 1.12 0.00 66 1016.2
20260507001508 12 290 3.2 4.8 0.00 1.12 0.00 65 1016.0
20260507000008 13 309 0.0 3.2 0.00 1.12 0.00 65 1015.9
20260506234507 13 306 0.0 3.2 0.00 1.12 0.00 64 1015.9
20260506233008 13 309 1.6 4.8 0.00 1.12 0.00 64 1015.9
20260506231510 13 319 0.0 3.2 0.00 1.12 0.00 64 1015.9
20260506230009 14 319 0.0 3.2 0.00 1.12 0.00 61 1016.0
20260506224512 14 328 1.6 4.8 0.00 1.12 0.00 59 1015.9
20260506223009 14 339 3.2 6.4 0.00 1.12 0.00 59 1015.9
20260506221510 14 333 3.2 6.4 0.00 1.12 0.00 59 1015.9
20260506213011 14 302 4.8 6.4 0.00 1.12 0.00 60 1016.0
20260506211511 14 296 3.2 6.4 0.00 1.12 0.00 61 1016.0
20260506210015 15 314 3.2 8.0 0.00 1.12 0.00 60 1015.7
20260506201517 15 294 1.6 4.8 0.00 1.12 1.12 57 1015.7
20260506194514 15 290 3.2 8.0 0.00 1.12 1.12 57 1015.7
20260506193014 16 292 4.8 12.9 0.00 1.12 1.12 56 1015.7
20260506190019 17 285 3.2 8.0 0.00 1.12 1.12 49 1015.5
20260506183008 17 283 3.2 12.9 0.00 1.12 1.12 43 1015.5
20260506181516 18 300 1.6 8.0 0.00 1.12 1.12 41 1015.4
20260506180022 18 333 3.2 6.4 0.00 1.12 1.12 39 1015.2
20260506174520 18 5 1.6 4.8 0.00 1.12 1.12 39 1015.1
20260506173011 18 296 0.0 6.4 0.00 1.12 1.12 38 1015.1
20260506171512 18 338 4.8 8.0 0.00 1.12 1.12 37 1015.0
20260506170021 19 304 1.6 6.4 0.00 1.12 1.12 35 1014.8
20260506164522 20 246 3.2 8.0 0.00 1.12 1.12 34 1014.7
20260506163041 20 259 1.6 8.0 0.00 1.12 1.12 33 1014.6
20260506161508 20 304 0.0 8.0 0.00 1.12 1.12 33 1014.3
20260506160019 20 234 3.2 6.4 1.12 1.12 1.12 32 1014.4
20260506154522 21 250 6.4 11.3 1.12 1.12 1.12 29 1014.3
20260506153024 21 113 8.0 16.1 1.12 1.12 1.12 28 1014.2
20260506151509 21 133 8.0 16.1 1.12 1.12 1.12 27 1014.1
20260506150026 21 120 8.0 22.5 0.00 0.00 0.00 26 1014.1
20260506141510 22 127 11.3 20.9 0.00 0.00 0.00 25 1014.3
20260506133022 22 114 14.5 22.5 0.00 0.00 0.00 23 1014.6
20260506131522 23 141 14.5 24.1 0.00 0.00 0.00 25 1014.7
20260506130011 22 96 9.7 20.9 0.00 0.00 0.00 26 1014.8
20260506123022 22 171 14.5 24.1 0.00 0.00 0.00 25 1015.1
20260506121519 23 244 11.3 19.3 0.00 0.00 0.00 25 1014.9